Mount Juliet, Tennessee, United States (37121)
Lat: 36.20N, Lon: 86.52W
Wx Zone: TNZ028
Local Info
Past Weather Observations for Today

NOTE: This archive is for the closest National Weather Service station to Mount Juliet. Information may differ from the station used for current weather conditions.

Click here for Long-term Archive

Time Weather Temperature Dewpoint Humidity Pressure Winds Precip Visibility
18:53
Mostly Cloudy
43°F / 6°C 27°F / -3°C 53% 30.15 in
(1021 mb)
NW 13.8 mph
(NW 22 kph)
- 10SM
16:53
Mostly Cloudy
43°F / 6°C 25°F / -4°C 49% 30.12 in
(1020 mb)
NNW 18.4 mph
(NNW 30 kph)
- 10SM
16:00
Mostly Cloudy
45°F / 7°C 27°F / -3°C 49% 30.09 in
(1019 mb)
NNW 17.3 mph
(NNW 28 kph)
- 10SM
15:53
Mostly Cloudy
45°F / 7°C 30°F / -1°C 57% 30.09 in
(1019 mb)
NNW 18.4 mph
(NNW 30 kph)
- 10SM
14:53
Overcast
43°F / 6°C 37°F / 3°C 81% 30.06 in
(1018 mb)
NNW 11.5 mph
(NNW 19 kph)
0.00 in
(0.00 mm)
10SM
14:37
Overcast
43°F / 6°C 37°F / 3°C 81% 30.06 in
(1018 mb)
NNW 13.8 mph
(NNW 22 kph)
0.00 in
(0.00 mm)
10SM
13:53
Overcast
43°F / 6°C 39°F / 4°C 87% 30.04 in
(1017 mb)
NNW 17.3 mph
(NNW 28 kph)
0.00 in
(0.00 mm)
7SM
13:05
Overcast
52°F / 11°C 43°F / 6°C 72% 30.01 in
(1016 mb)
NW 11.5 mph
(NW 19 kph)
- 10SM
12:53
Overcast
52°F / 11°C 43°F / 6°C 72% 30.01 in
(1016 mb)
NW 12.7 mph
(NW 20 kph)
- 10SM
11:53
Overcast
50°F / 10°C 45°F / 7°C 82% 30.01 in
(1016 mb)
NW 9.2 mph
(NW 15 kph)
0.00 in
(0.00 mm)
10SM
10:53
Overcast
52°F / 11°C 45°F / 7°C 77% 30.04 in
(1017 mb)
NNW 6.9 mph
(NNW 11 kph)
- 10SM
09:53
Overcast
52°F / 11°C 46°F / 8°C 82% 30.04 in
(1017 mb)
NW 8.1 mph
(NW 13 kph)
- 10SM
08:53
Overcast
52°F / 11°C 46°F / 8°C 82% 30.04 in
(1017 mb)
NW 4.6 mph
(NW 7 kph)
- 10SM
07:53
Overcast
50°F / 10°C 46°F / 8°C 88% 30.04 in
(1017 mb)
NNW 6.9 mph
(NNW 11 kph)
0.01 in
(0.25 mm)
10SM
07:19
Overcast
Light Rain
50°F / 10°C 46°F / 8°C 88% 30.04 in
(1017 mb)
NNW 5.8 mph
(NNW 9 kph)
0.01 in
(0.25 mm)
6SM
06:53
Overcast
Light Rain
50°F / 10°C 46°F / 8°C 88% 30.04 in
(1017 mb)
Variable 4.6 mph
(Variable 7 kph)
0.01 in
(0.25 mm)
6SM
05:53
Overcast
50°F / 10°C 45°F / 7°C 82% 30.01 in
(1016 mb)
Calm 0.00 in
(0.00 mm)
10SM
04:53
Overcast
52°F / 11°C 43°F / 6°C 72% 30.01 in
(1016 mb)
Calm - 10SM
03:53
Overcast
52°F / 11°C 43°F / 6°C 72% 30.01 in
(1016 mb)
WNW 3.5 mph
(WNW 6 kph)
- 10SM
02:53
Overcast
50°F / 10°C 45°F / 7°C 82% 30.01 in
(1016 mb)
Calm - 10SM
01:53
Overcast
50°F / 10°C 45°F / 7°C 82% 29.98 in
(1015 mb)
Calm - 10SM
00:53
Overcast
50°F / 10°C 45°F / 7°C 82% 30.01 in
(1016 mb)
SE 3.5 mph
(SE 6 kph)
- 10SM
Time Weather Temperature Dewpoint Humidity Pressure Winds Precip Visibility


Weather for websites

WeatherForYou.com, LLC is not responsible for any damages or problems caused by this service. Current weather conditions are obtained from the closest station including government and personal stations which may have varying degrees of accuracy. Weather forecasts are derived from the NOAA NDFD. Like all things, this site belongs to Jesus Christ... He just trusts me to maintain it. If you have any questions or comments email webmaster@weatherforyou.com

Copyright © 2014, WeatherForYou.com LLC. All rights reserved.